This is the latest recevied weather packets stored in our database for station/object W0AKY-13. If no packets are shown the sender has not sent any weather packets the latest 10 day(s).
| Time | Temp. | Humidity | Pressure | Rain* | Wind** | Luminosity | Snow |
|---|---|---|---|---|---|---|---|
| 1777537670 | 9.44° C | 82% | 1018.5 hPa | 0 mm | - | 0 W/m² | - |
| 1777537366 | 9.44° C | 84% | 1018.7 hPa | 0 mm | - | 0 W/m² | - |
| 1777537062 | 9.44° C | 85% | 1018.6 hPa | 0 mm | - | 0 W/m² | - |
| 1777536759 | 9.44° C | 83% | 1018.5 hPa | 0 mm | - | 0 W/m² | - |
| 1777536456 | 10° C | 82% | 1018.8 hPa | 0 mm | - | 0 W/m² | - |
| 1777536153 | 9.44° C | 79% | 1019.2 hPa | 0 mm | - | 0 W/m² | - |
| 1777535849 | 10° C | 80% | 1019 hPa | 0 mm | - | 0 W/m² | - |
| 1777535546 | 10° C | 79% | 1019.2 hPa | 0 mm | - | 0 W/m² | - |
| 1777535242 | 9.44° C | 77% | 1019.4 hPa | 0 mm | - | 0 W/m² | - |
| 1777534940 | 9.44° C | 79% | 1019.3 hPa | 0 mm | - | 0 W/m² | - |
| 1777534636 | 9.44° C | 82% | 1019.5 hPa | 0 mm | - | 0 W/m² | - |
| 1777534334 | 9.44° C | 82% | 1019.6 hPa | 0 mm | - | 0 W/m² | - |
| 1777534031 | 10° C | 79% | 1019.6 hPa | 0 mm | - | 0 W/m² | - |
| 1777533728 | 10° C | 77% | 1019.7 hPa | 0 mm | - | 0 W/m² | - |
| 1777533424 | 10° C | 75% | 1019.9 hPa | 0 mm | - | 0 W/m² | - |
| 1777533120 | 10° C | 73% | 1019.7 hPa | 0 mm | - | 0 W/m² | - |
| 1777532818 | 10° C | 75% | 1019.8 hPa | 0 mm | - | 0 W/m² | - |
| 1777532514 | 10° C | 73% | 1019.9 hPa | 0 mm | - | 0 W/m² | - |
| 1777532211 | 10° C | 73% | 1020 hPa | 0 mm | - | 0 W/m² | - |
| 1777531907 | 10° C | 74% | 1020.1 hPa | 0 mm | - | 0 W/m² | - |
| 1777531603 | 10° C | 76% | 1020.2 hPa | 0 mm | - | 0 W/m² | - |
| 1777531300 | 10° C | 77% | 1020.1 hPa | 0 mm | - | 0 W/m² | - |
| 1777530998 | 10° C | 77% | 1019.8 hPa | 0 mm | - | 0 W/m² | - |
| 1777530695 | 10.56° C | 77% | 1020.1 hPa | 0 mm | - | 0 W/m² | - |
| 1777530393 | 10° C | 73% | 1020 hPa | 0 mm | - | 0 W/m² | - |
* Rain latest hour (hover to see other rain measurements)
** Current wind speed in m/s (hover to see current wind gust speed)